DW1345 Weather Reports


time (UTC)temp
C
wind
direction
speed
KPH
gust
KPH
rain 1hr
cm
rain 24hr
cm
rain mn
cm
humidity
%
barometer
mb
20260508083036 7 209 3.2 0.0 0.00 0.00 0.05 69 1021.7
20260508081531 7 310 0.0 0.0 0.00 0.00 0.05 72 1021.6
20260508080036 6 317 1.6 0.0 0.00 0.00 0.05 75 1021.6
20260508074535 6 327 0.0 0.0 0.00 0.00 0.05 75 1021.5
20260508073023 6 40 3.2 0.0 0.00 0.00 0.05 77 1021.4
20260508071525 6 44 3.2 0.0 0.00 0.00 0.05 80 1021.5
20260508070014 5 51 3.2 0.0 0.00 0.00 0.05 85 1021.3
20260508064513 4 46 4.8 0.0 0.00 0.00 0.05 88 1021.2
20260508063007 3 53 4.8 0.0 0.00 0.00 0.05 89 1021.2
20260508061507 3 42 3.2 0.0 0.00 0.00 0.05 90 1021.3
20260508060005 3 52 4.8 0.0 0.00 0.00 0.05 90 1021.2
20260508054504 3 47 6.4 0.0 0.00 0.00 0.05 91 1021.1
20260508053001 3 62 3.2 0.0 0.00 0.00 0.05 91 1020.9
20260508051600 3 45 3.2 0.0 0.00 0.00 0.05 92 1020.8
20260508050059 2 42 3.2 0.0 0.00 0.00 0.05 92 1020.8
20260508044602 2 40 1.6 0.0 0.00 0.00 0.05 92 1020.6
20260508043054 2 42 1.6 0.0 0.00 0.00 0.05 92 1020.4
20260508041558 2 42 1.6 0.0 0.00 0.00 0.05 92 1020.4
20260508040056 2 65 1.6 0.0 0.00 0.00 0.05 93 1020.3
20260508034600 2 72 1.6 0.0 0.00 0.00 0.05 92 1020.3
20260508033049 1 71 1.6 0.0 0.00 0.00 0.05 92 1020.2
20260508031558 1 83 1.6 0.0 0.00 0.00 0.05 92 1020.0
20260508030106 1 100 3.2 0.0 0.00 0.00 0.05 92 1020.0
20260508024547 1 240 0.0 0.0 0.00 0.00 0.00 92 1020.1
20260508023048 1 240 0.0 0.0 0.00 0.00 0.00 92 1019.7
20260508021546 1 240 0.0 0.0 0.00 0.00 0.00 91 1019.9
20260508020043 1 241 0.0 0.0 0.00 0.00 0.00 91 1019.9
20260508014542 1 242 0.0 0.0 0.00 0.00 0.00 91 1019.6
20260508013040 1 242 0.0 0.0 0.00 0.00 0.00 91 1019.4
20260508011540 1 244 0.0 0.0 0.00 0.00 0.00 91 1019.4
20260508010042 1 244 0.0 0.0 0.00 0.00 0.00 90 1019.4
20260508004534 1 244 0.0 0.0 0.00 0.00 0.00 90 1019.1
20260508003033 2 244 0.0 0.0 0.00 0.00 0.00 90 1019.2
20260508001535 2 244 0.0 0.0 0.00 0.00 0.00 90 1019.1
20260508000031 2 244 0.0 0.0 0.00 0.00 0.00 90 1018.8
20260507234535 2 246 0.0 0.0 0.00 0.00 0.00 90 1018.7
20260507233027 2 237 0.0 0.0 0.00 0.00 0.00 90 1018.7
20260507231525 2 252 3.2 0.0 0.00 0.00 0.00 91 1018.6
20260507230022 1 89 1.6 0.0 0.00 0.00 0.00 90 1018.3
20260507224526 2 72 0.0 0.0 0.00 0.00 0.00 89 1018.3
20260507223017 2 72 1.6 0.0 0.00 0.00 0.00 89 1018.1
20260507221518 2 84 3.2 0.0 0.00 0.00 0.00 90 1017.8
20260507220013 2 360 0.0 0.0 0.00 0.00 0.15 88 1017.6
20260507214510 2 360 0.0 0.0 0.00 0.00 0.15 88 1017.8
20260507213018 2 360 0.0 0.0 0.00 0.00 0.15 88 1017.7
20260507211508 2 360 0.0 0.0 0.00 0.00 0.15 88 1017.6
20260507210023 2 309 0.0 0.0 0.00 0.00 0.15 86 1017.5
20260507204507 2 309 0.0 0.0 0.00 0.00 0.15 86 1017.4
20260507203010 3 309 0.0 0.0 0.00 0.00 0.15 85 1017.2
20260507201513 3 308 0.0 0.0 0.00 0.00 0.15 84 1017.0
20260507200011 3 308 0.0 0.0 0.00 0.00 0.15 84 1016.9
20260507194502 3 309 0.0 0.0 0.00 0.00 0.15 84 1016.8
20260507193132 3 309 0.0 0.0 0.00 0.00 0.15 85 1016.6
20260507191603 3 311 3.2 0.0 0.00 0.00 0.15 84 1016.4
20260507190059 3 279 4.8 0.0 0.00 0.00 0.15 83 1016.5
20260507184559 4 262 0.0 0.0 0.00 0.00 0.15 81 1016.5
20260507183102 5 304 0.0 0.0 0.00 0.00 0.15 80 1016.1
20260507181555 5 293 1.6 0.0 0.00 0.00 0.15 80 1016.1
20260507180057 5 308 1.6 0.0 0.00 0.00 0.15 79 1015.7
20260507174600 5 289 1.6 0.0 0.00 0.00 0.15 77 1015.9
20260507173128 5 239 3.2 0.0 0.00 0.00 0.15 76 1015.6
20260507171551 6 227 3.2 0.0 0.00 0.00 0.15 74 1015.6
20260507170053 6 229 4.8 0.0 0.00 0.00 0.15 74 1015.5
20260507164557 7 228 3.2 0.0 0.00 0.00 0.15 74 1015.5
20260507163049 6 240 3.2 0.0 0.00 0.00 0.15 76 1015.3
20260507161603 6 306 3.2 0.0 0.00 0.00 0.15 80 1015.3
20260507154548 5 299 4.8 0.0 0.00 0.00 0.15 80 1015.5
20260507153047 5 299 4.8 0.0 0.00 0.00 0.15 79 1015.4
20260507151546 5 252 11.3 0.0 0.00 0.00 0.15 79 1015.4
20260507150045 5 199 4.8 0.0 0.00 0.00 0.15 78 1015.3
20260507144556 5 254 4.8 0.0 0.00 0.00 0.15 78 1015.3
20260507143045 5 279 8.0 0.0 0.00 0.00 0.15 78 1015.1
20260507141542 6 258 8.0 0.0 0.00 0.00 0.15 78 1015.0
20260507140042 6 216 6.4 0.0 0.00 0.00 0.15 77 1014.8
20260507134539 6 249 4.8 0.0 0.00 0.00 0.15 75 1014.6
20260507133040 7 280 4.8 0.0 0.00 0.00 0.15 73 1014.5
20260507131537 8 242 6.4 0.0 0.00 0.00 0.15 74 1014.6
20260507130039 7 224 6.4 0.0 0.00 0.00 0.15 76 1014.4
20260507124531 7 255 8.0 0.0 0.00 0.00 0.15 75 1014.4
20260507123039 6 243 6.4 0.0 0.00 0.00 0.15 78 1014.3
20260507121529 6 246 4.8 0.0 0.00 0.00 0.15 83 1014.3
20260507120029 5 304 3.2 0.0 0.00 0.00 0.15 86 1014.4
20260507114527 4 296 1.6 0.0 0.00 0.00 0.15 86 1014.2
20260507113028 4 277 9.7 0.0 0.00 0.00 0.15 83 1014.1
20260507111525 5 244 9.7 0.0 0.00 0.00 0.13 81 1013.7
20260507110029 6 252 1.6 0.0 0.00 0.00 0.13 79 1013.5
20260507104523 5 182 3.2 0.0 0.00 0.00 0.13 83 1013.5
20260507103023 6 191 6.4 0.0 0.00 0.00 0.08 78 1013.5
20260507101520 6 236 6.4 0.0 0.00 0.00 0.08 81 1013.3
20260507100022 6 227 3.2 0.0 0.00 0.00 0.08 77 1013.3
20260507094520 6 192 4.8 0.0 0.00 0.00 0.08 76 1013.1
20260507093015 6 276 4.8 0.0 0.00 0.00 0.08 73 1013.0
20260507091513 7 248 3.2 0.0 0.00 0.00 0.08 71 1013.0
20260507090013 7 194 3.2 0.0 0.00 0.00 0.08 73 1012.8
20260507084513 6 212 3.2 0.0 0.00 0.00 0.08 74 1012.6